Lahr, Germany

12:10 PM CET on November 14, 2019 (GMT +0100)
Lahr

Weather History for EDTL - September, 2019

Change the Weather History Date:

Friday, September 20, 2019

  Actual Average (WUND) Record (WUND)
Temperature  
Mean Temperature 54 °F -  
Max Temperature 70 °F - - (-1)
Min Temperature 38 °F - - (-1)
Degree Days  
Heating Degree Days 11    
Growing Degree Days 4 (Base 50)    
Moisture  
Dew Point 38 °F    
Average Humidity 43    
Maximum Humidity 86    
Minimum Humidity 21    
Precipitation  
Precipitation 0.00 in - - ()
Sea Level Pressure  
Sea Level Pressure 30.26 in    
Wind  
Wind Speed 7 mph ()    
Max Wind Speed 15 mph    
Max Gust Speed -    
Visibility 16.0 miles    
Events      
Averages and records for this station are not official NWS values.
T = Trace of Precipitation, MM = Missing Value Source: Averaged Metar Reports

Daily Weather History Graph

Daily Weather History Graph

Search for Another Location

Airport or City:

Astronomy

Sep. 20, 2019 Rise Set
Actual Time 7:11 AM CEST 7:31 PM CEST
Civil Twilight 6:40 AM CEST 8:02 PM CEST
Nautical Twilight 6:03 AM CEST 8:39 PM CEST
Astronomical Twilight 5:25 AM CEST 9:18 PM CEST
Moon 10:42 PM CEST (9/20) 1:26 PM CEST (9/20)
Length of Visible Light 13h 22m
Length of Day
12h 19m
Waning Gibbous, 67% of the Moon is Illuminated
Sep 20
Waning Gibbous
Sep 22
Last Quarter
Sep 28
New
Oct 5
First Quarter
Oct 13
Full

Hourly Weather History & Observations

Time (CEST) Temp. Dew Point Humidity Pressure Visibility Wind Dir Wind Speed Gust Speed Precip Events Conditions
12:00 AM 48 °F 38 °F 60% 30.36 in 44 mi North 4.5 mph - -  
3:00 AM 40 °F 36 °F 79% 30.36 in 34 mi NNE 4.5 mph - -  
4:00 AM 40 °F 36 °F 81% 30.35 in 34 mi NW 2.2 mph - -  
6:00 AM 38 °F 35 °F 86% 30.35 in 31 mi NNW 2.2 mph - -   Overcast
10:00 AM 50 °F 39 °F 55% 30.36 in 28 mi North 2.2 mph - -  
1:00 PM 63 °F 38 °F 28% 30.31 in 28 mi North 6.7 mph - -  
1:50 PM 66.2 °F 41.0 °F 40% 30.27 in - North 5.8 mph - N/A   Clear
2:20 PM 68.0 °F 39.2 °F 35% 30.27 in - North 10.4 mph - N/A   Clear
2:50 PM 68.0 °F 41.0 °F 37% 30.24 in - North 12.7 mph - N/A   Clear
3:20 PM 68.0 °F 39.2 °F 35% 30.24 in - North 12.7 mph - N/A   Clear
3:50 PM 69.8 °F 39.2 °F 33% 30.24 in - North 13.8 mph - N/A   Clear
4:00 PM 70 °F 39 °F 21% 30.24 in 16 mi NNE 13.4 mph - -  
4:20 PM 69.8 °F 39.2 °F 33% 30.21 in - North 12.7 mph - N/A   Clear
4:50 PM 69.8 °F 39.2 °F 33% 30.21 in - North 15.0 mph - N/A   Clear
5:20 PM 69.8 °F 39.2 °F 33% 30.21 in - North 13.8 mph - N/A   Clear
5:50 PM 68.0 °F 39.2 °F 35% 30.21 in - North 13.8 mph - N/A   Clear
6:20 PM 68.0 °F 39.2 °F 35% 30.21 in - North 10.4 mph - N/A   Clear
6:50 PM 66.2 °F 39.2 °F 37% 30.21 in - NNE 6.9 mph - N/A   Clear
7:20 PM 66.2 °F 35.6 °F 32% 30.21 in - ENE 6.9 mph - N/A   Clear
7:50 PM 64.4 °F 35.6 °F 34% 30.21 in - NE 8.1 mph - N/A   Clear
9:00 PM 58 °F 38 °F 35% 30.22 in 44 mi NE 6.7 mph - -